Time,TemperatureF,DewpointF,PressureIn,WindDirection,WindDirectionDegrees,WindSpeedMPH,WindSpeedGustMPH,Humidity,HourlyPrecipIn,Conditions,Clouds,dailyrainin,SoftwareType,DateUTC
2014-07-13 00:01:00,68.5,68.2,30.25,North,360,0.0,2.0,99,0.00,,,0.00,Weather View 32 v70,2014-07-13 04:01:00,
2014-07-13 00:03:00,68.3,68.0,30.25,North,360,0.0,2.0,99,0.00,,,0.00,Weather View 32 v70,2014-07-13 04:03:00,
2014-07-13 00:04:00,68.2,67.9,30.25,North,360,0.0,2.0,99,0.00,,,0.00,Weather View 32 v70,2014-07-13 04:04:00,
2014-07-13 00:09:00,68.2,67.9,30.25,North,360,0.0,2.0,99,0.00,,,0.00,Weather View 32 v70,2014-07-13 04:09:00,
2014-07-13 00:14:00,68.3,68.0,30.25,North,360,0.0,2.0,99,0.00,,,0.00,Weather View 32 v70,2014-07-13 04:14:00,
2014-07-13 00:19:00,68.2,67.9,30.25,North,360,0.0,2.0,99,0.00,,,0.00,Weather View 32 v70,2014-07-13 04:19:00,
2014-07-13 00:24:00,68.0,67.7,30.25,North,360,0.0,2.0,99,0.00,,,0.00,Weather View 32 v70,2014-07-13 04:24:00,
2014-07-13 00:29:00,67.9,67.6,30.25,North,360,0.0,2.0,99,0.00,,,0.00,Weather View 32 v70,2014-07-13 04:29:00,
2014-07-13 00:34:00,67.9,67.6,30.25,North,360,0.0,2.0,99,0.00,,,0.00,Weather View 32 v70,2014-07-13 04:34:00,
2014-07-13 00:39:00,67.9,67.6,30.25,North,360,0.0,2.0,99,0.00,,,0.00,Weather View 32 v70,2014-07-13 04:39:00,
2014-07-13 00:44:00,67.7,67.4,30.24,North,360,0.0,2.0,99,0.00,,,0.00,Weather View 32 v70,2014-07-13 04:44:00,
2014-07-13 00:49:00,67.6,67.3,30.25,North,360,0.0,1.0,99,0.00,,,0.00,Weather View 32 v70,2014-07-13 04:49:00,
2014-07-13 00:54:00,67.5,67.2,30.24,North,360,0.0,0.0,99,0.00,,,0.00,Weather View 32 v70,2014-07-13 04:54:00,
2014-07-13 00:59:00,67.4,67.1,30.24,North,360,0.0,0.0,99,0.00,,,0.00,Weather View 32 v70,2014-07-13 04:59:00,
2014-07-13 01:04:00,67.4,67.1,30.24,North,360,0.0,0.0,99,0.00,,,0.00,Weather View 32 v70,2014-07-13 05:04:00,
2014-07-13 01:09:00,67.4,67.1,30.24,North,360,0.0,0.0,99,0.00,,,0.00,Weather View 32 v70,2014-07-13 05:09:00,
2014-07-13 01:14:00,67.3,67.0,30.24,North,360,0.0,0.0,99,0.00,,,0.00,Weather View 32 v70,2014-07-13 05:14:00,
2014-07-13 01:19:00,67.1,66.8,30.24,North,360,0.0,0.0,99,0.00,,,0.00,Weather View 32 v70,2014-07-13 05:19:00,
2014-07-13 01:24:00,66.9,66.6,30.24,North,360,0.0,0.0,99,0.00,,,0.00,Weather View 32 v70,2014-07-13 05:24:00,
2014-07-13 01:29:00,66.8,66.5,30.24,North,360,0.0,0.0,99,0.00,,,0.00,Weather View 32 v70,2014-07-13 05:29:00,
2014-07-13 01:34:00,66.7,66.4,30.24,North,360,0.0,0.0,99,0.00,,,0.00,Weather View 32 v70,2014-07-13 05:34:00,
2014-07-13 01:39:00,66.7,66.4,30.24,North,360,0.0,0.0,99,0.00,,,0.00,Weather View 32 v70,2014-07-13 05:39:00,
2014-07-13 01:44:00,66.8,66.5,30.23,North,360,0.0,0.0,99,0.00,,,0.00,Weather View 32 v70,2014-07-13 05:44:00,
2014-07-13 01:49:00,66.8,66.5,30.23,North,360,0.0,0.0,99,0.00,,,0.00,Weather View 32 v70,2014-07-13 05:49:00,
2014-07-13 01:54:00,66.8,66.5,30.23,North,360,0.0,0.0,99,0.00,,,0.00,Weather View 32 v70,2014-07-13 05:54:00,
2014-07-13 01:59:00,66.6,66.3,30.23,North,360,0.0,0.0,99,0.00,,,0.00,Weather View 32 v70,2014-07-13 05:59:00,
2014-07-13 02:04:00,66.3,66.0,30.23,North,360,0.0,0.0,99,0.00,,,0.00,Weather View 32 v70,2014-07-13 06:04:00,
2014-07-13 02:09:00,66.2,65.9,30.23,North,360,0.0,0.0,99,0.00,,,0.00,Weather View 32 v70,2014-07-13 06:09:00,
2014-07-13 02:14:00,66.2,65.9,30.23,North,360,0.0,0.0,99,0.00,,,0.00,Weather View 32 v70,2014-07-13 06:14:00,
2014-07-13 02:19:00,66.1,65.8,30.23,North,360,0.0,0.0,99,0.00,,,0.00,Weather View 32 v70,2014-07-13 06:19:00,
2014-07-13 02:24:00,65.9,65.3,30.22,North,360,0.0,0.0,98,0.00,,,0.00,Weather View 32 v70,2014-07-13 06:24:00,
2014-07-13 02:29:00,65.9,65.3,30.22,North,360,0.0,0.0,98,0.00,,,0.00,Weather View 32 v70,2014-07-13 06:29:00,
2014-07-13 02:34:00,65.9,65.3,30.22,North,360,0.0,0.0,98,0.00,,,0.00,Weather View 32 v70,2014-07-13 06:34:00,
2014-07-13 02:39:00,65.9,65.3,30.22,North,360,0.0,0.0,98,0.00,,,0.00,Weather View 32 v70,2014-07-13 06:39:00,
2014-07-13 02:44:00,65.8,65.2,30.22,North,360,0.0,0.0,98,0.00,,,0.00,Weather View 32 v70,2014-07-13 06:44:00,
2014-07-13 02:49:00,65.7,65.1,30.22,North,360,0.0,0.0,98,0.00,,,0.00,Weather View 32 v70,2014-07-13 06:49:00,
2014-07-13 02:54:00,65.9,65.3,30.21,North,360,0.0,0.0,98,0.00,,,0.00,Weather View 32 v70,2014-07-13 06:54:00,
2014-07-13 02:59:00,65.8,65.2,30.21,North,360,0.0,0.0,98,0.00,,,0.00,Weather View 32 v70,2014-07-13 06:59:00,
2014-07-13 03:04:00,65.7,65.1,30.22,North,360,0.0,0.0,98,0.00,,,0.00,Weather View 32 v70,2014-07-13 07:04:00,
2014-07-13 03:09:00,65.5,64.9,30.22,North,360,0.0,0.0,98,0.00,,,0.00,Weather View 32 v70,2014-07-13 07:09:00,
2014-07-13 03:14:00,65.5,64.9,30.22,North,360,0.0,0.0,98,0.00,,,0.00,Weather View 32 v70,2014-07-13 07:14:00,
2014-07-13 03:19:00,65.4,64.8,30.22,North,360,0.0,0.0,98,0.00,,,0.00,Weather View 32 v70,2014-07-13 07:19:00,
2014-07-13 03:24:00,65.4,64.8,30.22,North,360,0.0,0.0,98,0.00,,,0.00,Weather View 32 v70,2014-07-13 07:24:00,
2014-07-13 03:29:00,65.5,64.9,30.22,North,360,0.0,0.0,98,0.00,,,0.00,Weather View 32 v70,2014-07-13 07:29:00,
2014-07-13 03:34:00,65.4,64.8,30.22,North,360,0.0,0.0,98,0.00,,,0.00,Weather View 32 v70,2014-07-13 07:34:00,
2014-07-13 03:40:00,65.4,64.8,30.22,North,360,0.0,0.0,98,0.00,,,0.00,Weather View 32 v70,2014-07-13 07:40:00,
2014-07-13 03:45:00,65.5,64.9,30.22,North,360,0.0,0.0,98,0.00,,,0.00,Weather View 32 v70,2014-07-13 07:45:00,
2014-07-13 03:50:00,65.7,65.1,30.22,North,360,0.0,0.0,98,0.00,,,0.00,Weather View 32 v70,2014-07-13 07:50:00,
2014-07-13 03:55:00,65.9,65.3,30.22,North,360,0.0,0.0,98,0.00,,,0.00,Weather View 32 v70,2014-07-13 07:55:00,
2014-07-13 04:00:00,66.1,65.8,30.22,North,360,0.0,0.0,99,0.00,,,0.00,Weather View 32 v70,2014-07-13 08:00:00,
2014-07-13 04:05:00,66.3,66.0,30.22,North,360,2.0,3.0,99,0.00,,,0.00,Weather View 32 v70,2014-07-13 08:05:00,
2014-07-13 04:10:00,66.1,65.8,30.22,North,360,0.0,3.0,99,0.00,,,0.00,Weather View 32 v70,2014-07-13 08:10:00,
2014-07-13 04:15:00,65.9,65.3,30.22,North,360,0.0,3.0,98,0.00,,,0.00,Weather View 32 v70,2014-07-13 08:15:00,
2014-07-13 04:20:00,66.1,65.8,30.22,East,90,2.0,3.0,99,0.00,,,0.00,Weather View 32 v70,2014-07-13 08:20:00,
2014-07-13 04:25:00,66.2,65.9,30.21,East,90,0.0,3.0,99,0.00,,,0.00,Weather View 32 v70,2014-07-13 08:25:00,
2014-07-13 04:30:00,66.4,66.1,30.21,East,90,2.0,3.0,99,0.00,,,0.00,Weather View 32 v70,2014-07-13 08:30:00,
2014-07-13 04:35:00,66.7,66.4,30.21,SE,135,2.0,3.0,99,0.00,,,0.00,Weather View 32 v70,2014-07-13 08:35:00,
2014-07-13 04:40:00,66.7,66.4,30.20,SSE,157,2.0,3.0,99,0.00,,,0.00,Weather View 32 v70,2014-07-13 08:40:00,
2014-07-13 04:45:00,66.6,66.3,30.20,South,180,2.0,4.0,99,0.00,,,0.00,Weather View 32 v70,2014-07-13 08:45:00,
2014-07-13 04:50:00,66.2,65.9,30.20,NW,315,2.0,4.0,99,0.00,,,0.00,Weather View 32 v70,2014-07-13 08:50:00,
2014-07-13 04:55:00,65.7,65.1,30.21,NW,315,1.0,4.0,98,0.00,,,0.00,Weather View 32 v70,2014-07-13 08:55:00,
2014-07-13 05:00:00,65.3,64.7,30.21,NW,315,0.0,4.0,98,0.00,,,0.00,Weather View 32 v70,2014-07-13 09:00:00,
2014-07-13 05:05:00,65.1,64.5,30.21,NW,315,0.0,4.0,98,0.00,,,0.00,Weather View 32 v70,2014-07-13 09:05:00,
2014-07-13 05:10:00,65.0,64.4,30.20,NW,315,0.0,4.0,98,0.00,,,0.00,Weather View 32 v70,2014-07-13 09:10:00,
2014-07-13 05:15:00,65.1,64.5,30.20,NW,315,0.0,4.0,98,0.00,,,0.00,Weather View 32 v70,2014-07-13 09:15:00,
2014-07-13 05:20:00,65.3,64.7,30.20,NW,315,0.0,4.0,98,0.00,,,0.00,Weather View 32 v70,2014-07-13 09:20:00,
2014-07-13 05:25:00,65.4,64.8,30.20,NW,315,0.0,4.0,98,0.00,,,0.00,Weather View 32 v70,2014-07-13 09:25:00,
2014-07-13 05:30:00,65.4,64.8,30.20,NW,315,0.0,4.0,98,0.00,,,0.00,Weather View 32 v70,2014-07-13 09:30:00,
2014-07-13 05:35:00,65.6,65.0,30.20,NW,315,0.0,4.0,98,0.00,,,0.00,Weather View 32 v70,2014-07-13 09:35:00,